Time,TemperatureF,DewpointF,PressureIn,WindDirection,WindDirectionDegrees,WindSpeedMPH,WindSpeedGustMPH,Humidity,HourlyPrecipIn,Conditions,Clouds,dailyrainin,SoftwareType,DateUTC
2013-10-11 00:06:00,47.9,47.0,30.15,SSW,201,0.0,1.0,96,0.00,,,0.00,weatherlink.com 1.10,2013-10-11 04:06:00,
2013-10-11 00:21:00,48.1,47.0,30.14,SSW,201,0.0,2.0,96,0.00,,,0.00,weatherlink.com 1.10,2013-10-11 04:21:00,
2013-10-11 00:36:00,48.7,48.0,30.14,SSE,168,1.0,2.0,96,0.00,,,0.00,weatherlink.com 1.10,2013-10-11 04:36:00,
2013-10-11 00:51:00,49.4,48.0,30.14,SE,146,0.0,2.0,96,0.00,,,0.00,weatherlink.com 1.10,2013-10-11 04:51:00,
2013-10-11 01:06:00,49.8,49.0,30.14,SSW,207,0.0,2.0,95,0.00,,,0.00,weatherlink.com 1.10,2013-10-11 05:06:00,
2013-10-11 01:21:00,50.1,49.0,30.14,SSE,149,1.0,2.0,95,0.00,,,0.00,weatherlink.com 1.10,2013-10-11 05:21:00,
2013-10-11 01:36:00,49.9,49.0,30.14,SSE,149,1.0,2.0,95,0.00,,,0.00,weatherlink.com 1.10,2013-10-11 05:36:00,
2013-10-11 01:51:00,50.0,49.0,30.13,NNW,329,1.0,2.0,95,0.00,,,0.00,weatherlink.com 1.10,2013-10-11 05:51:00,
2013-10-11 02:06:00,49.8,49.0,30.13,NNW,329,1.0,1.0,95,0.00,,,0.00,weatherlink.com 1.10,2013-10-11 06:06:00,
2013-10-11 02:21:00,49.5,48.0,30.12,NNW,329,0.0,2.0,95,0.00,,,0.00,weatherlink.com 1.10,2013-10-11 06:21:00,
2013-10-11 02:36:00,48.8,48.0,30.12,NNE,17,0.0,2.0,95,0.00,,,0.00,weatherlink.com 1.10,2013-10-11 06:36:00,
2013-10-11 02:51:00,47.6,46.0,30.12,WNW,287,1.0,2.0,95,0.00,,,0.00,weatherlink.com 1.10,2013-10-11 06:51:00,
2013-10-11 03:07:00,46.6,45.0,30.11,WNW,287,0.0,2.0,95,0.00,,,0.00,weatherlink.com 1.10,2013-10-11 07:07:00,
2013-10-11 03:22:00,45.5,44.0,30.11,WNW,287,0.0,1.0,95,0.00,,,0.00,weatherlink.com 1.10,2013-10-11 07:22:00,
2013-10-11 03:37:00,44.8,44.0,30.11,WNW,287,0.0,1.0,96,0.00,,,0.00,weatherlink.com 1.10,2013-10-11 07:37:00,
2013-10-11 03:52:00,44.3,43.0,30.11,WNW,287,0.0,1.0,96,0.00,,,0.00,weatherlink.com 1.10,2013-10-11 07:52:00,
2013-10-11 04:07:00,44.3,44.0,30.11,WNW,287,0.0,1.0,97,0.00,,,0.00,weatherlink.com 1.10,2013-10-11 08:07:00,
2013-10-11 04:22:00,44.6,44.0,30.11,WNW,287,1.0,2.0,97,0.00,,,0.00,weatherlink.com 1.10,2013-10-11 08:22:00,
2013-10-11 04:37:00,45.0,44.0,30.11,WNW,287,0.0,2.0,97,0.00,,,0.00,weatherlink.com 1.10,2013-10-11 08:37:00,
2013-10-11 04:52:00,45.6,45.0,30.11,WNW,287,0.0,1.0,98,0.00,,,0.00,weatherlink.com 1.10,2013-10-11 08:52:00,
2013-10-11 05:07:00,45.3,45.0,30.12,WNW,287,0.0,1.0,97,0.00,,,0.00,weatherlink.com 1.10,2013-10-11 09:07:00,
2013-10-11 05:22:00,46.6,46.0,30.12,North,351,1.0,3.0,98,0.00,,,0.00,weatherlink.com 1.10,2013-10-11 09:22:00,
2013-10-11 05:37:00,47.3,47.0,30.12,ENE,63,0.0,2.0,98,0.00,,,0.00,weatherlink.com 1.10,2013-10-11 09:37:00,
2013-10-11 05:52:00,47.2,47.0,30.12,ENE,63,0.0,1.0,98,0.00,,,0.00,weatherlink.com 1.10,2013-10-11 09:52:00,
2013-10-11 06:07:00,46.9,46.0,30.13,ENE,63,0.0,1.0,98,0.00,,,0.00,weatherlink.com 1.10,2013-10-11 10:07:00,
2013-10-11 06:22:00,46.6,46.0,30.13,ENE,63,0.0,0.0,98,0.00,,,0.00,weatherlink.com 1.10,2013-10-11 10:22:00,
2013-10-11 06:37:00,46.4,46.0,30.13,NE,55,0.0,1.0,98,0.00,,,0.00,weatherlink.com 1.10,2013-10-11 10:37:00,
2013-10-11 06:52:00,46.5,46.0,30.13,North,5,0.0,3.0,98,0.00,,,0.00,weatherlink.com 1.10,2013-10-11 10:52:00,
2013-10-11 07:07:00,46.2,45.0,30.13,NE,44,1.0,2.0,97,0.00,,,0.00,weatherlink.com 1.10,2013-10-11 11:07:00,
2013-10-11 07:22:00,46.1,45.0,30.13,NE,44,0.0,1.0,97,0.00,,,0.00,weatherlink.com 1.10,2013-10-11 11:22:00,
2013-10-11 07:37:00,46.0,45.0,30.13,NE,44,1.0,1.0,97,0.00,,,0.00,weatherlink.com 1.10,2013-10-11 11:37:00,
2013-10-11 07:52:00,45.8,45.0,30.13,NNW,340,0.0,1.0,97,0.00,,,0.00,weatherlink.com 1.10,2013-10-11 11:52:00,
2013-10-11 08:07:00,46.1,45.0,30.14,NNW,340,0.0,2.0,97,0.00,,,0.00,weatherlink.com 1.10,2013-10-11 12:07:00,
2013-10-11 08:22:00,47.2,47.0,30.14,NNW,340,1.0,1.0,98,0.00,,,0.00,weatherlink.com 1.10,2013-10-11 12:22:00,
2013-10-11 08:37:00,49.5,49.0,30.14,NE,53,3.0,4.0,98,0.00,,,0.00,weatherlink.com 1.10,2013-10-11 12:37:00,
2013-10-11 08:52:00,51.0,49.0,30.14,NNW,338,2.0,5.0,94,0.00,,,0.00,weatherlink.com 1.10,2013-10-11 12:52:00,
2013-10-11 09:07:00,51.7,50.0,30.14,NE,40,2.0,7.0,93,0.00,,,0.00,weatherlink.com 1.10,2013-10-11 13:07:00,
2013-10-11 09:22:00,51.9,50.0,30.15,East,99,3.0,6.0,92,0.00,,,0.00,weatherlink.com 1.10,2013-10-11 13:22:00,
2013-10-11 09:37:00,52.7,50.0,30.14,East,92,4.0,7.0,91,0.00,,,0.00,weatherlink.com 1.10,2013-10-11 13:37:00,
2013-10-11 09:52:00,53.7,51.0,30.15,North,360,3.0,6.0,89,0.00,,,0.00,weatherlink.com 1.10,2013-10-11 13:52:00,
2013-10-11 10:07:00,55.3,51.0,30.14,ENE,57,5.0,8.0,86,0.00,,,0.00,weatherlink.com 1.10,2013-10-11 14:07:00,
2013-10-11 10:22:00,55.9,52.0,30.14,ENE,76,4.0,6.0,86,0.00,,,0.00,weatherlink.com 1.10,2013-10-11 14:22:00,
2013-10-11 10:37:00,56.2,52.0,30.14,NE,51,3.0,5.0,84,0.00,,,0.00,weatherlink.com 1.10,2013-10-11 14:37:00,
2013-10-11 10:52:00,57.2,53.0,30.13,NNE,31,2.0,3.0,85,0.00,,,0.00,weatherlink.com 1.10,2013-10-11 14:52:00,
2013-10-11 11:07:00,60.6,52.0,30.12,North,11,5.0,8.0,73,0.00,,,0.00,weatherlink.com 1.10,2013-10-11 15:07:00,
2013-10-11 11:23:00,62.9,51.0,30.12,ESE,119,3.0,8.0,66,0.00,,,0.00,weatherlink.com 1.10,2013-10-11 15:23:00,
2013-10-11 11:38:00,64.1,53.0,30.12,ESE,105,6.0,12.0,67,0.00,,,0.00,weatherlink.com 1.10,2013-10-11 15:38:00,
2013-10-11 11:53:00,65.1,53.0,30.12,NNE,13,4.0,6.0,64,0.00,,,0.00,weatherlink.com 1.10,2013-10-11 15:53:00,
2013-10-11 12:08:00,65.6,52.0,30.11,ESE,105,6.0,7.0,62,0.00,,,0.00,weatherlink.com 1.10,2013-10-11 16:08:00,
2013-10-11 12:23:00,67.0,53.0,30.11,ENE,57,4.0,8.0,61,0.00,,,0.00,weatherlink.com 1.10,2013-10-11 16:23:00,
2013-10-11 12:38:00,67.4,53.0,30.10,NNE,19,4.0,9.0,61,0.00,,,0.00,weatherlink.com 1.10,2013-10-11 16:38:00,
2013-10-11 12:53:00,68.3,52.0,30.10,East,87,3.0,10.0,57,0.00,,,0.00,weatherlink.com 1.10,2013-10-11 16:53:00,
2013-10-11 13:08:00,68.6,54.0,30.09,NE,34,4.0,8.0,61,0.00,,,0.00,weatherlink.com 1.10,2013-10-11 17:08:00,
2013-10-11 13:23:00,68.6,53.0,30.08,ENE,69,3.0,9.0,58,0.00,,,0.00,weatherlink.com 1.10,2013-10-11 17:23:00,
2013-10-11 13:38:00,69.3,52.0,30.07,NNW,337,3.0,8.0,55,0.00,,,0.00,weatherlink.com 1.10,2013-10-11 17:38:00,
2013-10-11 13:53:00,69.7,52.0,30.07,NNE,12,4.0,9.0,53,0.00,,,0.00,weatherlink.com 1.10,2013-10-11 17:53:00,
2013-10-11 14:08:00,70.4,53.0,30.06,North,355,3.0,8.0,54,0.00,,,0.00,weatherlink.com 1.10,2013-10-11 18:08:00,
2013-10-11 14:23:00,71.4,53.0,30.05,NE,38,5.0,9.0,53,0.00,,,0.00,weatherlink.com 1.10,2013-10-11 18:23:00,
2013-10-11 14:38:00,71.2,52.0,30.05,ENE,74,3.0,9.0,50,0.00,,,0.00,weatherlink.com 1.10,2013-10-11 18:38:00,
2013-10-11 14:53:00,71.2,50.0,30.05,ENE,58,5.0,10.0,47,0.00,,,0.00,weatherlink.com 1.10,2013-10-11 18:53:00,
2013-10-11 15:08:00,71.7,51.0,30.05,NE,46,1.0,8.0,48,0.00,,,0.00,weatherlink.com 1.10,2013-10-11 19:08:00,
2013-10-11 15:23:00,71.4,49.0,30.05,North,360,6.0,8.0,45,0.00,,,0.00,weatherlink.com 1.10,2013-10-11 19:23:00,
2013-10-11 15:53:00,69.8,46.0,30.05,NNE,22,2.0,10.0,43,0.00,,,0.00,weatherlink.com 1.10,2013-10-11 19:53:00,
2013-10-11 16:08:00,68.7,46.0,30.05,East,95,6.0,8.0,44,0.00,,,0.00,weatherlink.com 1.10,2013-10-11 20:08:00,
2013-10-11 16:23:00,69.5,47.0,30.05,NNW,342,2.0,6.0,45,0.00,,,0.00,weatherlink.com 1.10,2013-10-11 20:23:00,
2013-10-11 16:38:00,70.3,49.0,30.06,East,95,4.0,7.0,47,0.00,,,0.00,weatherlink.com 1.10,2013-10-11 20:38:00,
2013-10-11 16:53:00,70.4,47.0,30.06,NNE,28,3.0,6.0,44,0.00,,,0.00,weatherlink.com 1.10,2013-10-11 20:53:00,
2013-10-11 17:08:00,69.1,45.0,30.06,North,351,6.0,6.0,42,0.00,,,0.00,weatherlink.com 1.10,2013-10-11 21:08:00,
2013-10-11 17:23:00,67.1,42.0,30.06,NE,45,1.0,14.0,41,0.00,,,0.00,weatherlink.com 1.10,2013-10-11 21:23:00,
2013-10-11 17:39:00,66.1,42.0,30.07,NNE,32,5.0,5.0,42,0.00,,,0.00,weatherlink.com 1.10,2013-10-11 21:39:00,
2013-10-11 17:54:00,65.0,41.0,30.07,ENE,61,1.0,6.0,41,0.00,,,0.00,weatherlink.com 1.10,2013-10-11 21:54:00,
2013-10-11 18:09:00,63.9,41.0,30.07,North,5,0.0,2.0,44,0.00,,,0.00,weatherlink.com 1.10,2013-10-11 22:09:00,
2013-10-11 18:24:00,60.0,44.0,30.08,North,5,1.0,2.0,57,0.00,,,0.00,weatherlink.com 1.10,2013-10-11 22:24:00,
2013-10-11 18:39:00,56.1,44.0,30.08,WNW,299,0.0,2.0,64,0.00,,,0.00,weatherlink.com 1.10,2013-10-11 22:39:00,
2013-10-11 18:54:00,54.6,44.0,30.09,WNW,288,1.0,2.0,68,0.00,,,0.00,weatherlink.com 1.10,2013-10-11 22:54:00,
2013-10-11 19:09:00,53.5,44.0,30.09,WNW,286,2.0,3.0,71,0.00,,,0.00,weatherlink.com 1.10,2013-10-11 23:09:00,
2013-10-11 19:24:00,52.8,45.0,30.09,WNW,286,2.0,2.0,75,0.00,,,0.00,weatherlink.com 1.10,2013-10-11 23:24:00,
2013-10-11 19:39:00,52.5,45.0,30.09,WNW,286,0.0,2.0,76,0.00,,,0.00,weatherlink.com 1.10,2013-10-11 23:39:00,
2013-10-11 19:54:00,52.8,45.0,30.10,WNW,286,2.0,2.0,76,0.00,,,0.00,weatherlink.com 1.10,2013-10-11 23:54:00,
2013-10-11 20:09:00,52.6,46.0,30.10,WNW,286,0.0,2.0,78,0.00,,,0.00,weatherlink.com 1.10,2013-10-12 00:09:00,
2013-10-11 20:24:00,52.0,46.0,30.10,WNW,286,0.0,2.0,80,0.00,,,0.00,weatherlink.com 1.10,2013-10-12 00:24:00,
2013-10-11 20:39:00,51.5,47.0,30.11,WNW,286,0.0,1.0,83,0.00,,,0.00,weatherlink.com 1.10,2013-10-12 00:39:00,
2013-10-11 20:54:00,51.8,47.0,30.11,WNW,286,1.0,2.0,82,0.00,,,0.00,weatherlink.com 1.10,2013-10-12 00:54:00,
2013-10-11 21:09:00,51.7,47.0,30.11,WNW,286,1.0,1.0,83,0.00,,,0.00,weatherlink.com 1.10,2013-10-12 01:09:00,
2013-10-11 21:24:00,50.5,46.0,30.11,WNW,286,1.0,2.0,84,0.00,,,0.00,weatherlink.com 1.10,2013-10-12 01:24:00,
2013-10-11 21:39:00,49.4,45.0,30.12,WNW,286,0.0,2.0,85,0.00,,,0.00,weatherlink.com 1.10,2013-10-12 01:39:00,
2013-10-11 21:54:00,48.8,45.0,30.12,WNW,286,1.0,2.0,86,0.00,,,0.00,weatherlink.com 1.10,2013-10-12 01:54:00,
2013-10-11 22:09:00,48.4,44.0,30.13,WNW,286,0.0,1.0,86,0.00,,,0.00,weatherlink.com 1.10,2013-10-12 02:09:00,
2013-10-11 22:24:00,47.3,44.0,30.13,WNW,286,1.0,2.0,89,0.00,,,0.00,weatherlink.com 1.10,2013-10-12 02:24:00,
2013-10-11 22:39:00,46.7,44.0,30.13,WNW,286,0.0,2.0,89,0.00,,,0.00,weatherlink.com 1.10,2013-10-12 02:39:00,
2013-10-11 22:54:00,46.0,44.0,30.13,WNW,286,0.0,2.0,91,0.00,,,0.00,weatherlink.com 1.10,2013-10-12 02:54:00,
2013-10-11 23:09:00,45.5,43.0,30.13,WNW,286,0.0,0.0,91,0.00,,,0.00,weatherlink.com 1.10,2013-10-12 03:09:00,
2013-10-11 23:24:00,44.9,43.0,30.13,WNW,286,1.0,1.0,92,0.00,,,0.00,weatherlink.com 1.10,2013-10-12 03:24:00,
2013-10-11 23:39:00,44.6,43.0,30.13,WNW,286,0.0,1.0,93,0.00,,,0.00,weatherlink.com 1.10,2013-10-12 03:39:00,
2013-10-11 23:54:00,44.5,43.0,30.13,WNW,286,0.0,1.0,94,0.00,,,0.00,weatherlink.com 1.10,2013-10-12 03:54:00,